SCP
0 0 0 0 0 0 0 0 0 0 0 0 0 0 0 0 0 0 0 0 0 0 0 0 0 0 0 0 0 0 0 0 0 0 0 0 0 0 0 0 0 0 0 0
0 0 0 0 0 0 0 0 0 0 0 0 0 0 0 0 0 0 0 0 0 0 0 0 0 0 0 0 0 0 0 0 0 0 0 0 0 0 0 0 0 0 0 0
0 0 0 0 0 0 0 0 0 0 0 0 0 0 0 0 0 0 0 0 0 0 0 0 0 0 0 0 0 0 0 0 0 0 0 0 0 0 0 0 0 0 0 0
0 0 0 0 0 0 0 0 0 0 0 0 0 0 0 0 0 0 0 0 0 0 0 0 0 0 0 0 0 0 0 0 0 0 0 0 0 0 0 0 0 0 0 0
0 0 0 0 0 0 0 0 0 0 0 0 0 0 0 0 0 0 0 0 0 0 0 0 0 0 0 0 0 0 0 0 0 0 0 0 0 0 0 0 0 0 0 0
0 0 0 0 0 0 0 0 0 0 0 0 0 0 0 0 0 0 0 0 0 0 0 0 0 0 0 0 0 0 0 0 0 0 0 0 0 0 0 0 0 0 0 0
0 0 0 0 0 0 0 0 0 0 0 0 0 0 0 0 0 0 0 0 0 0 0 0 0 0 0 0 0 0 0 0 0 0 0 0 0 0 0 0 0 0 0 0
0 0 0 0 0 0 0 0 0 0 0 0 0 0 0 0 0 0 0 0 0 0 0 0 0 0 0 0 0 0 0 0 0 0 0 0 0 0 0 0 0 0 0 0
0 0 0 0 0 0 0 0 0 0 0 0 0 0 0 0 0 0 0 0 0 0 0 0 0 0 0 0 0 0 0 0 0 0 0 0 0 0 0 0 0 0 0 0
0 0 0 0 0 0 0 0 0 0 0 0 0 0 0 0 0 0 0 0 0 0 0 0 0 0 0 0 0 0 0 0 0 0 0 0 0 0 0 0 0 0 0 0
0 0 0 0 0 0 0 0 0 0 0 0 0 0 0 0 0 0 0 0 0 0 0 0 0 0 0 0 0 0 0 0 0 0 0 0 0 0 0 0 0 0 0 0
0 0 0 0 0 0 0 0 0 0 0 0 0 0 0 0 0 0 0 0 0 0 0 0 0 0 0 0 0 0 0 0 0 0 0 0 0 0 0 0 0 0 0 0
0 0 0 0 0 0 0 0 0 0 0 0 0 0 0 0 0 0 0 0 0 0 0 0 0 0 0 0 0 0 0 0 0 0 0 0 0 0 0 0 0 0 0 0
0 0 0 0 0 0 0 0 0 0 0 0 0 0 0 0 0 0 0 0 0 0 0 0 0 0 0 0 0 0 0 0 0 0 0 0 0 0 0 0 0 0 0 0
0 0 0 0 0 0 0 0 0 0 0 0 0 0 0 0 0 0 0 0 0 0 0 0 0 0 0 0 0 0 0 0 0 0 0 0 0 0 0 0 0 0 0 0
0 0 0 0 0 0 0 0 0 0 0 0 0 0 0 0 0 0 0 0 0 0 0 0 0 0 0 0 0 0 0 0 0 0 0 0 0 0 0 0 0 0 0 0
0 0 0 0 0 0 0 0 0 0 0 0 0 0 0 0 0 0 0 0 0 0 0 0 0 0 0 0 0 0 0 0 0 0 0 0 0 0 0 0 0 0 0 0
0 0 0 0 0 0 0 0 0 0 0 0 0 0 0 0 0 0 0 0 0 0 0 0 0 0 0 0 0 0 0 0 0 0 0 0 0 0 0 0 0 0 0 0
0 0 0 0 0 0 0 0 0 0 0 0 0 0 0 0 0 0 0 0 0 0 0 0 0 0 0 0 0 0 0 0 0 0 0 0 0 0 0 0 0 0 0 0
0 0 0 0 0 0 0 0 0 0 0 0 0 0 0 0 0 0 0 0 0 0 0 0 0 0 0 0 0 0 0 0 0 0 0 0 0 0 0 0 0 0 0 0
0 0 0 0 0 0 0 0 0 0 0 0 0 0 0 0 0 0 0 0 0 0 0 0 0 0 0 0 0 0 0 0 0 0 0 0 0 0 0 0 0 0 0 0
0 0 0 0 0 0 0 0 0 0 0 0 0 0 0 0 0 0 0 0 0 0 0 0 0 0 0 0 0 0 0 0 0 0 0 0 0 0 0 0 0 0 0 0
0 0 0 0 0 0 0 0 0 0 0 0 0 0 0 0 0 0 0 0 0 0 0 0 0 0 0 0 0 0 0 0 0 0 0 0 0 0 0 0 0 0 0 0
0 0 0 0 0 0 0 0 0 0 0 0 0 0 0 0 0 0 0 0 0 0 0 0 0 0 0 0 0 0 0 0 0 0 0 0 0 0 0 0 0 0 0 0
0 0 0 0 0 0 0 0 0 0 0 0 0 0 0 0 0 0 0 0 0 0 0 0 0 0 0 0 0 0 0 0 0 0 0 0 0 0 0 0 0 0 0 0
0 0 0 0 0 0 0 0 0 0 0 0 0 0 0 0 0 0 0 0 0 0 0 0 0 0 0 0 0 0 0 0 0 0 0 0 0 0 0 0 0 0 0 0
0 0 0 0 0 0 0 0 0 0 0 0 0 0 0 0 0 0 0 0 0 0 0 0 0 0 0 0 0 0 0 0 0 0 0 0 0 0 0 0 0 0 0 0
Wind_Speed
4 5 5 5 3 3 5 8 7 7 9 10 10 9 9 8 7 6 5 4 4 3 3 4 4 5 5 5 4 4 4 5 6 6 6 6 6 7 7 7 8 7 7 8
5 7 8 7 4 0 3 5 6 8 5 7 6 5 5 6 7 6 5 4 3 2 3 4 4 5 4 4 5 4 4 5 6 6 6 6 6 7 7 7 7 7 8 8
3 7 6 5 3 2 2 4 8 7 7 6 5 6 6 7 7 6 5 4 3 3 4 4 5 4 4 4 4 4 5 5 5 5 6 7 7 7 7 8 7 8 8 8
1 4 3 9 5 3 5 3 5 7 6 7 7 6 5 7 7 7 6 5 4 4 4 4 3 3 3 3 4 4 5 5 5 6 7 7 7 8 8 7 7 8 9 9
3 1 6 7 4 3 6 2 4 8 7 7 6 4 2 6 7 7 6 5 5 4 4 3 4 3 3 4 4 5 5 5 6 6 7 8 8 9 8 7 8 8 8 9
4 3 5 8 5 4 9 1 4 8 8 9 8 2 5 7 6 6 5 4 3 3 2 2 4 3 2 4 5 5 6 6 6 7 7 8 9 9 8 7 8 8 8 8
4 5 8 8 4 3 2 8 8 9 9 8 8 8 7 7 7 6 5 4 3 2 1 3 4 2 3 4 5 5 5 6 7 7 7 9 8 7 8 8 8 8 8 8
3 3 8 7 3 5 10 6 8 8 8 8 8 7 7 8 8 7 5 4 3 2 2 4 3 2 4 5 5 5 5 6 7 8 8 8 8 9 8 7 7 7 7 7
7 9 10 7 9 8 8 8 9 9 9 10 9 8 9 8 8 6 6 4 3 3 3 4 3 3 4 5 4 4 5 7 8 8 8 7 7 9 8 6 5 6 5 5
3 8 8 8 6 5 8 9 10 10 10 11 10 9 9 8 7 6 5 4 3 2 2 4 4 4 4 4 4 4 5 7 7 8 8 8 6 6 6 6 5 5 5 5
5 7 6 5 5 7 7 8 8 9 10 12 12 10 10 8 8 7 6 5 4 4 4 5 5 4 4 3 3 4 6 6 7 7 7 8 7 6 7 6 6 6 5 4
7 9 6 7 7 6 7 9 11 11 9 9 11 11 10 9 8 7 6 5 4 4 4 4 4 4 4 3 3 4 5 6 6 6 6 6 7 8 9 8 10 10 9 7
9 8 7 7 5 6 7 9 10 11 11 10 9 10 11 8 8 7 6 6 5 5 4 4 3 4 5 4 3 4 5 6 6 6 6 7 6 6 8 8 8 8 9 10
7 3 1 2 3 4 5 7 7 8 9 10 10 8 9 8 7 7 7 7 6 5 4 4 4 5 4 3 3 5 5 7 7 6 6 7 6 6 5 6 6 6 5 7
4 2 2 1 3 3 1 1 3 4 6 7 7 8 10 9 9 8 7 6 5 4 4 4 4 4 3 3 4 5 5 5 5 6 6 6 6 6 5 5 5 5 4 4
5 7 8 9 8 7 6 4 0 3 6 8 8 9 9 9 8 7 7 7 6 5 5 5 4 4 3 3 4 4 4 9 9 6 6 6 5 5 5 5 5 4 4 4
14 13 11 11 11 11 10 7 4 2 3 7 9 9 8 8 7 7 7 7 7 6 6 5 5 4 3 3 3 3 4 6 10 7 5 5 5 5 5 5 5 4 5 5
12 11 10 10 10 12 14 14 12 8 3 4 6 7 9 10 10 9 9 7 6 5 5 5 5 4 3 2 2 3 4 4 5 5 5 5 5 5 5 4 5 5 4 4
15 14 14 14 12 12 12 13 13 11 9 3 2 6 7 8 9 9 8 8 7 6 6 6 7 4 3 2 2 2 4 5 5 5 5 6 6 5 4 4 5 4 4 4
13 13 13 13 13 12 12 12 12 11 9 6 3 3 5 7 8 8 8 8 7 6 6 7 6 4 3 2 2 2 4 5 5 5 5 5 5 5 5 5 5 4 4 4
11 11 12 11 11 11 10 11 10 10 10 7 6 7 8 8 7 7 6 6 6 6 6 8 5 4 2 1 3 2 3 4 3 4 4 5 5 5 5 5 5 4 4 4
9 9 10 10 10 10 10 10 9 10 10 9 9 8 8 8 8 7 7 6 6 8 6 4 4 5 3 1 1 1 2 3 3 3 4 5 5 5 5 6 5 5 4 4
7 7 8 9 9 10 10 10 9 9 9 9 9 9 9 8 6 6 7 5 4 8 6 5 6 7 4 1 0 0 1 2 3 4 4 5 5 5 5 6 5 5 5 5
8 9 9 9 8 8 9 9 8 7 7 7 7 8 7 5 5 5 4 5 8 9 6 7 10 7 4 2 1 1 1 2 3 4 5 5 5 5 5 5 6 5 5 6
9 9 9 9 7 6 7 7 7 7 7 6 7 8 6 4 4 3 2 5 9 9 5 7 9 6 4 3 3 2 2 2 3 4 4 5 5 5 6 6 6 5 5 5
8 7 6 6 5 5 5 4 4 5 5 5 6 6 6 5 4 1 2 5 8 8 6 4 4 4 4 4 4 3 3 3 4 4 5 5 6 6 6 6 8 6 6 6
6 5 4 4 5 5 4 4 4 5 5 5 5 6 6 5 4 1 2 4 4 4 4 5 5 5 5 5 4 4 3 3 3 4 5 5 5 5 6 7 6 6 6 6
Wind_Direction
257 284 320 311 291 190 159 171 165 182 174 198 196 192 196 192 183 169 171 177 183 206 241 259 266 273 274 273 271 267 270 275 274 273 274 273 275 274 273 270 271 264 261 259
327 320 330 322 315 29 137 138 131 132 180 210 199 184 180 172 157 156 170 178 184 207 247 267 270 272 278 276 274 271 276 279 280 285 287 286 283 280 277 275 272 270 265 261
291 313 353 317 277 169 145 154 151 168 190 178 170 177 172 162 157 168 180 186 201 231 248 260 262 262 266 269 276 286 287 289 292 295 294 288 290 291 283 279 274 273 269 263
226 9 310 259 273 125 104 59 126 130 150 164 169 168 176 175 170 180 186 195 221 239 253 259 261 267 272 283 292 293 296 298 301 300 296 294 292 288 284 278 275 273 273 268
144 217 275 294 301 154 120 59 135 135 150 155 147 110 245 210 186 186 192 198 213 224 229 252 269 272 288 302 301 301 300 301 299 298 298 301 299 293 288 283 281 276 273 272
161 192 245 251 258 140 100 144 210 156 158 160 148 135 249 222 192 189 191 194 204 219 232 275 277 275 295 300 301 296 293 293 294 294 297 298 295 290 287 281 279 282 282 276
201 222 255 241 226 107 133 227 207 176 169 162 172 196 210 187 188 189 185 187 180 184 248 271 274 276 292 295 287 281 288 295 297 297 297 294 290 287 289 288 287 286 285 285
181 204 258 240 194 186 214 202 182 178 175 171 185 190 174 173 182 181 177 181 176 189 263 277 276 271 286 285 276 284 295 300 299 300 303 308 299 297 294 290 289 290 290 293
187 214 235 225 208 211 174 173 185 180 180 167 169 175 174 177 179 182 182 192 197 202 259 284 278 260 269 272 278 294 305 306 303 305 304 298 295 297 300 295 288 289 289 290
265 267 256 247 237 208 183 185 184 175 174 170 171 175 172 172 179 184 192 198 197 206 256 279 276 270 253 264 278 296 304 304 304 307 308 305 300 293 292 292 289 286 286 286
291 285 305 292 239 213 202 186 175 174 178 176 168 171 172 176 183 189 194 200 192 202 234 260 272 271 265 265 282 301 303 302 305 303 301 305 304 295 290 279 265 264 267 260
242 248 224 246 248 220 195 194 188 182 184 181 171 172 170 176 183 184 189 189 193 210 232 257 266 263 264 256 268 295 303 306 305 305 305 304 306 310 302 287 285 272 253 245
230 239 219 242 250 219 197 197 192 187 184 183 180 171 167 173 181 179 179 183 195 210 225 245 252 260 263 255 273 290 292 296 300 300 303 304 304 304 308 312 303 285 269 258
241 224 260 292 276 245 208 196 189 189 187 179 174 169 166 165 169 173 183 192 189 193 217 230 244 263 262 261 285 293 294 297 301 295 298 299 298 296 291 294 307 310 291 267
269 201 193 296 8 352 294 154 151 183 184 181 173 168 168 167 173 182 186 178 169 185 218 233 251 261 254 274 289 294 296 295 297 296 297 296 296 296 295 294 291 294 304 302
25 37 38 35 23 8 10 14 70 219 196 188 183 182 177 170 170 174 177 171 170 200 227 231 239 234 248 279 292 293 292 304 311 302 300 302 303 303 303 300 297 295 292 286
49 35 27 24 21 18 14 6 350 287 216 196 192 179 162 156 159 176 189 191 188 199 209 209 210 216 243 266 275 285 293 304 313 310 300 299 303 303 301 301 298 293 286 278
54 49 44 37 28 22 15 8 1 351 312 213 174 158 161 167 180 193 196 193 192 205 213 200 191 210 244 251 256 281 290 291 296 297 299 303 307 305 306 305 304 305 303 303
38 34 30 28 22 19 13 7 1 358 357 4 152 178 187 190 194 196 193 188 197 215 221 195 193 201 226 232 252 283 290 294 298 299 301 309 316 314 312 306 303 302 304 306
29 23 19 15 12 10 2 357 355 350 345 341 309 234 219 219 211 203 197 203 210 206 190 178 179 187 202 239 302 287 290 292 298 307 312 314 315 315 315 310 307 306 307 305
15 9 4 359 353 351 346 343 340 328 319 311 287 260 247 241 227 210 202 223 231 195 174 170 164 169 181 239 300 291 296 300 311 320 322 320 317 319 320 319 318 313 308 307
355 349 342 336 333 328 324 322 319 315 311 305 295 282 271 261 248 236 226 223 206 174 162 155 158 172 178 204 272 306 321 329 332 332 328 324 322 323 323 325 324 322 318 314
326 319 315 311 307 304 307 309 308 308 305 302 299 292 276 264 251 237 249 234 178 168 156 157 168 169 160 141 145 38 22 6 349 337 327 323 322 322 321 324 324 326 329 327
312 306 301 298 302 307 306 303 305 306 306 307 311 311 302 295 292 269 244 180 168 161 156 164 168 165 146 128 118 89 52 22 356 338 329 328 332 334 329 327 330 332 334 341
304 302 303 309 313 307 302 306 316 324 330 331 331 332 327 315 292 275 186 159 158 150 150 171 174 159 132 120 111 89 63 37 10 349 338 336 339 339 339 339 339 340 347 352
298 300 301 301 300 301 308 316 320 319 322 325 323 323 326 328 323 318 145 153 158 157 155 155 152 133 112 109 99 84 61 33 16 360 344 341 342 345 344 345 348 353 354 358
298 302 310 318 319 321 323 325 322 316 313 313 310 310 315 320 321 275 164 158 159 152 139 129 119 110 104 97 88 72 53 36 19 2 351 348 348 348 346 348 353 355 357 3